Weather History for Nellis AFB, NV

Change the Weather History Date:

Monday, August 19, 2013

  Actual Average Record
Temperature  
Mean Temperature 85 °F -  
Max Temperature 96 °F 101 °F 105 °F (2001)
Min Temperature 74 °F 76 °F 68 °F (1998)
Cooling Degree Days 20    
Growing Degree Days 35 (Base 50)    
Moisture  
Dew Point 63 °F    
Average Humidity 55    
Maximum Humidity 84    
Minimum Humidity 28    
Precipitation  
Precipitation 0.00 in - - ()
Sea Level Pressure  
Sea Level Pressure 29.93 in    
Wind  
Wind Speed 6 mph (East)    
Max Wind Speed 13 mph    
Max Gust Speed -    
Visibility 10 miles    
Events Rain , Thunderstorm    
Averages and records for this station are not official NWS values.
T = Trace of Precipitation, MM = Missing Value Source: NWS Daily Summary

Daily Weather History Graph

Daily Weather History Graph

Search for Another Location

Airport:

Trip Planner

Search our weather history database for the weather conditions in past years. The results will help you decide how hot, cold, wet, or windy it might be!

Date:

Astronomy

Aug. 19, 2013 Rise Set
Actual Time 6:01 AM PDT 7:25 PM PDT
Civil Twilight 5:34 AM PDT 7:51 PM PDT
Nautical Twilight 5:02 AM PDT 8:24 PM PDT
Astronomical Twilight 4:28 AM PDT 8:57 PM PDT
Moon 6:19 PM PDT (8/19) 4:26 AM PDT (8/19)
Length of Visible Light 14h 17m
Length of Day
13h 23m
Waxing Gibbous, 98% of the Moon is Illuminated
Aug 19
Waxing Gibbous
Aug 20
Full
Aug 28
Last Quarter
Sep 5
New
Sep 12
First Quarter

Hourly Weather History & Observations

Time (PDT) Temp. Heat Index Dew Point Humidity Pressure Visibility Wind Dir Wind Speed Gust Speed Precip Events Conditions
12:00 AM 78.8 °F - 64.4 °F 61% 30.06 in 10.0 mi Variable 1.2 mph - N/A Thunderstorm Mostly Cloudy
12:28 AM 78.8 °F - 66.2 °F 65% 30.06 in 10.0 mi North 8.1 mph - N/A   Light Drizzle
12:49 AM 75.2 °F - 68.0 °F 78% 30.04 in 10.0 mi NNE 12.7 mph - N/A Rain Light Rain
12:58 AM 76.1 °F - 67.3 °F 74% 29.98 in 10.0 mi East 11.5 mph - 0.00 in Rain Light Rain
1:29 AM 75.2 °F - 68.0 °F 78% 30.07 in 10.0 mi SSW 9.2 mph - N/A   Partly Cloudy
1:35 AM 75.2 °F - 68.0 °F 78% 30.07 in 10.0 mi SSW 9.2 mph - N/A   Light Drizzle
1:56 AM 75.2 °F - 68.0 °F 78% 30.06 in 10.0 mi West 5.8 mph - N/A   Partly Cloudy
1:58 AM 74.7 °F - 68.0 °F 80% 29.99 in 10.0 mi WNW 4.6 mph - 0.00 in   Partly Cloudy
2:06 AM 75.2 °F - 68.0 °F 78% 30.05 in 10.0 mi NNW 9.2 mph - N/A   Light Drizzle
2:16 AM 75.2 °F - 66.2 °F 73% 30.04 in 10.0 mi NNW 8.1 mph - N/A   Clear
2:58 AM 75.6 °F - 66.7 °F 74% 29.93 in 10.0 mi East 5.8 mph - 0.00 in   Clear
3:58 AM 74.3 °F - 69.1 °F 84% 29.95 in 10.0 mi SSW 5.8 mph - N/A   Partly Cloudy
4:58 AM 75.0 °F - 68.0 °F 79% 29.96 in 10.0 mi Calm Calm - N/A   Partly Cloudy
5:58 AM 74.3 °F - 67.6 °F 80% 29.95 in 10.0 mi Calm Calm - N/A   Clear
6:58 AM 75.2 °F - 66.6 °F 74% 29.94 in 10.0 mi Calm Calm - N/A   Clear
7:58 AM 78.3 °F - 65.8 °F 65% 29.95 in 10.0 mi East 4.6 mph - N/A   Clear
8:58 AM 82.0 °F 83.6 °F 64.4 °F 55% 29.95 in 10.0 mi East 11.5 mph - N/A   Clear
9:58 AM 84.9 °F 85.2 °F 61.7 °F 45% 29.96 in 10.0 mi ENE 10.4 mph - N/A   Clear
10:58 AM 88.3 °F 87.6 °F 59.0 °F 37% 29.96 in 10.0 mi NE 9.2 mph - N/A   Clear
11:58 AM 90.5 °F 89.0 °F 56.5 °F 32% 29.93 in 10.0 mi Variable 4.6 mph - N/A   Scattered Clouds
12:58 PM 92.3 °F 90.5 °F 55.4 °F 29% 29.91 in 10.0 mi ENE 3.5 mph - N/A   Partly Cloudy
1:58 PM 94.3 °F 92.7 °F 56.1 °F 28% 29.88 in 10.0 mi South 4.6 mph - N/A   Partly Cloudy
2:58 PM 94.8 °F 94.2 °F 58.5 °F 30% 29.85 in 10.0 mi SSW 3.5 mph - N/A   Partly Cloudy
3:58 PM 94.8 °F 93.4 °F 57.4 °F 28% 29.82 in 10.0 mi Variable 3.5 mph - N/A   Clear
4:58 PM 96.1 °F 95.2 °F 57.7 °F 28% 29.80 in 10.0 mi SW 8.1 mph - N/A   Clear
5:58 PM 95.0 °F 93.7 °F 57.0 °F 28% 29.79 in 10.0 mi Calm Calm - N/A   Clear
6:58 PM 94.5 °F 93.6 °F 58.1 °F 30% 29.78 in 10.0 mi Calm Calm - N/A   Clear
7:58 PM 91.0 °F 90.9 °F 60.3 °F 36% 29.79 in 10.0 mi East 3.5 mph - N/A   Clear
8:58 PM 91.2 °F 90.5 °F 59.0 °F 34% 29.81 in 10.0 mi SSE 2.3 mph - N/A   Clear
9:58 PM 89.4 °F 88.7 °F 58.8 °F 36% 29.81 in 10.0 mi East 4.6 mph - N/A   Scattered Clouds
10:58 PM 90.3 °F 89.9 °F 59.7 °F 36% 29.81 in 10.0 mi West 3.5 mph - N/A   Clear
11:58 PM 88.3 °F 88.6 °F 61.7 °F 41% 29.81 in 10.0 mi Calm Calm - N/A   Partly Cloudy